Hurricane Symbol View the latest observations near East Pacific Tropical Storm Bud.

Station MDRM1 - Mt. Desert Rock, ME Image indicating link to RSS feed of recent meteorological observations for station MDRM1


Conditions at MDRM1 as of
(9:00 pm EDT on 07/24/2024)
0100 GMT on 07/25/2024:
     

Click on the graph icon in the table below to see a time series plot of the last five days of that observation.

5-day plot - Wind Direction Wind Direction (WDIR): E ( 80 deg true )
5-day plot - Wind Speed Wind Speed (WSPD): 8 kts
5-day plot - Wind Gust Wind Gust (GST): 8 kts
5-day plot - Atmospheric Pressure Atmospheric Pressure (PRES):30.18 in
5-day plot - Pressure Tendency Pressure Tendency (PTDY):+0.00 in ( Steady )
5-day plot - Air Temperature Air Temperature (ATMP): 61.5 °F
5-day plot - Dew Point Dew Point (DEWP): 61.5 °F
5-day plot - Wind Speed at 10 Meters Wind Speed at 10 meters (WSPD10M): 8 kts
5-day plot - Wind Speed at 20 Meters Wind Speed at 20 meters (WSPD20M): 8 kts
5-day plot -  Wind Speed, Wind Gust and Atmospheric Pressure Combined plot of Wind Speed, Gust, and Air Pressure
Continuous Winds
TIME
(EDT)
5-day plot - Wind Direction WDIR 5-day plot - Wind Speed WSPD
9:00 pmE ( 86 deg ) 8 kts
8:50 pmE ( 85 deg ) 8 kts
8:40 pmE ( 84 deg ) 9 kts
8:30 pmE ( 85 deg ) 8 kts
8:20 pmE ( 80 deg ) 8 kts
8:10 pmE ( 83 deg ) 8 kts
 
Peak gust during the measurement hour
TIME
(EDT)
5-day plot - Gust Direction GDR 5-day plot - Gust Speed GST
8:34 pmE ( 80 deg ) 9 kts
Previous observations
TIME
(EDT)
5-day plot - Wind Direction
WDIR
 
5-day plot - Wind Speed
WSPD
kts
5-day plot - Wind Gust
GST
kts
5-day plot - Wave Height
WVHT
ft
5-day plot - Dominant Wave Period
DPD
sec
5-day plot - Average Wave Period
APD
sec
5-day plot - Mean Wave Direction
MWD
 
5-day plot - Atmospheric Pressure
PRES
in
5-day plot - Pressure Tendency
PTDY
in
5-day plot - Air Temperature
ATMP
°F
5-day plot - Water Temperature
WTMP
°F
5-day plot - Dew Point
DEWP
°F
5-day plot - Salinity
SAL
psu
5-day plot - Visibility
VIS
nmi
5-day plot - Tide (above MLLW)
TIDE
ft
2024-07-24 08:00 pm E 7 8----30.18-0.02 61.0- 61.0---
2024-07-24 07:00 pmENE 8 9----30.19-0.03 61.3- 61.3---
2024-07-24 06:00 pmENE 7 7----30.19-0.04 62.2- 62.2---
2024-07-24 05:00 pm E 3 4----30.20-0.03 63.5- 63.5---
2024-07-24 04:00 pmESE 5 5----30.22-0.02 65.8- 65.7---
2024-07-24 03:00 pmESE 5 5----30.22-0.02 65.1- 65.1---
2024-07-24 02:00 pm SE 4 4----30.23-0.01 66.9- 65.5---
2024-07-24 01:00 pm SE 6 6----30.23+0.00 66.0- 66.0---
2024-07-24 12:00 pmESE 7 7----30.24+0.01 64.9- 64.9---
2024-07-24 11:00 amESE 7 7----30.24+0.02 65.1- 65.1---
2024-07-24 10:00 amESE 7 7----30.23+0.02 63.3- 63.3---
2024-07-24 09:00 am SE 7 7----30.23+0.02 63.5- 63.5---
2024-07-24 08:00 am E 3 3----30.22+0.03 63.1- 63.1---
2024-07-24 07:00 amESE 2 2----30.21+0.03 63.3- 63.3---
2024-07-24 06:00 am SE 6 6----30.21+0.02 62.1- 62.1---
2024-07-24 05:00 amESE 4 4----30.19+0.01 61.9- 61.9---
2024-07-24 04:00 amESE 3 4----30.18+0.01 61.9- 61.9---
2024-07-24 03:00 am SE 3 3----30.19+0.01 62.2- 62.2---
2024-07-24 02:00 amSSE 3 3----30.18+0.02 62.1- 62.1---
2024-07-24 01:00 amESE 3 3----30.17+0.01 61.3- 61.3---
2024-07-24 12:00 amENE 4 4----30.17+0.02 60.3- 60.3---
2024-07-23 11:00 pm N 3 3----30.16+0.05 60.8- 60.8---
2024-07-23 10:00 pm E 3 3----30.16+0.06 61.0- 61.0---
2024-07-23 09:00 pmNNE 6 6----30.15+0.07 59.7- 59.7---